Tracking 28790 objects as of 19-Apr-2024
HD Live streaming from Space Station
objects crossing your sky now

IRIDIUM 29

Track IRIDIUM 29 now!
10-day predictions
IRIDIUM 29 is classified as:


NORAD ID: 24944
Int'l Code: 1997-051A
Perigee: 778.6 km
Apogee: 781.5 km
Inclination: 86.4 °
Period: 100.3 minutes
Semi major axis: 7151 km
RCS: 3.662 m2 (large)
Launch date: September 14, 1997
Source: United States (US)
Launch site: TYURATAM MISSILE AND SPACE COMPLEX (TTMTR)
Your satellite tracking list
Your tracking list is empty




NASA's NSSDC Master Catalog

Two Line Element Set (TLE):
1 24944U 97051A   24110.14503472  .00000988  00000-0  33620-3 0  9991
2 24944  86.3941 321.6757 0002018  94.6257 265.5170 14.35636056392639
Source of the keplerian elements: AFSPC